Regional Weather Roundup
Issued by NWS Wakefield, VA

Home | Current Version | Previous Version | Graphics & Text | Print | Product List | Glossary On
Versions: 1 2 3 4 5 6 7 8 9 10 11 12 13 14 15 16 17 18 19 20 21 22 23 24 25 26 27 28 29 30 31 32 33 34 35 36 37 38 39 40 41 42 43 44 45 46 47 48 49
000
ASUS41 KAKQ 250810
RWRAKQ

REGIONAL WEATHER ROUNDUP
NATIONAL WEATHER SERVICE WAKEFIELD VA
300 AM EST SUN JAN 25 2015

Note: "fair" indicates few or no clouds below 12,000 feet with no
significant weather and/or obstructions to visibility. * = Denotes
station may not report precipitation (e.g., rain,snow,etc.),
thunder or fog.

VAZ042-051-052>054-056-250900-
NORTHERN VIRGINIA

CITY           SKY/WX    TMP DP  RH WIND       PRES   REMARKS
WASH NATIONAL  CLOUDY    41  26  55 W10G20    29.75R
DULLES         MOCLDY    38  26  62 CALM      29.74R
FORT BELVOIR   CLOUDY    35  28  77 CALM      29.76R
QUANTICO       CLOUDY    35  29  78 W5        29.78R
FREDERICKSBRG* MOCLDY    35  29  78 SW5       29.77R
STAFFORD*      CLOUDY    32  30  94 CALM      29.81R
WARRENTON      PTCLDY    33  31  95 S3        29.75R
CULPEPER*      MOCLDY    39  27  60 NW5       29.76R
MANASSAS*      MOCLDY    39  28  65 NW9       29.76R
LEESBURG*      PTCLDY    37  32  81 W14       29.74R
WINCHESTER     CLOUDY    39  23  52 W7        29.72R
FRONT ROYAL*   CLOUDY    37  27  65 S5        29.72S
LURAY*         CLOUDY    37  30  75 SW7       29.74R
$$

VAZ048-049-060>072-079>083-250900-
CENTRAL AND SOUTH CENTRAL VIRGINIA

CITY           SKY/WX    TMP DP  RH WIND       PRES   REMARKS
RICHMOND       PTCLDY    33  26  75 SW3       29.79R
CHESTERFIELD*  FAIR      32  18  55 SW5       29.81R
PETERSBURG*    CLEAR     30  28  90 SW6       29.81R
HANOVER        CLEAR     31  26  82 SW5       29.80R
TAPPAHANNOCK*  CLEAR     34  25  69 SW6       29.78R
QUINTON*       FAIR      34  27  75 W3        29.79R
CHARLOTTSVILLE CLEAR     39  24  55 SW3       29.75R
GORDONSVILLE*  FAIR      29  26  88 CALM      29.75S
ORANGE*        PTCLDY    32  28  86 CALM      29.77R
LOUISA*        CLEAR     34  27  75 S3        29.75R
BUMPASS*       FAIR      30  26  83 CALM      29.77R
FARMVILLE*     CLEAR     36  28  74 SW8       29.78R
CREWE*         FAIR      31  26  81 SW3       29.80R
FORT PICKETT*  FAIR      28  25  86 SW5       29.80R
CHASE CITY*    FAIR      36  30  80 W7        29.82R
CLARKSVILLE*   FAIR      34  28  80 SW6       29.84R
SOUTH HILL*    CLEAR     29  26  87 SW3       29.88R
LAWRENCEVILLE* FAIR      31  27  83 CALM      29.81R
EMPORIA*       CLEAR     32  27  80 CALM      29.84R
$$

VAZ088>098-250900-
SOUTHEAST VIRGINIA

CITY           SKY/WX    TMP DP  RH WIND       PRES   REMARKS
NORFOLK        CLEAR     37  26  64 W8        29.78R
VIRGINIA BEACH CLEAR     36  27  69 W8        29.78R
NORFOLK NAVAL  CLEAR     39  28  64 W16       29.80R
WEST POINT*    FAIR      32  27  81 CALM      29.80R
SALUDA*        FAIR      32  27  81 W5        29.77R
NEWPORT NEWS   CLEAR     36  27  69 W7        29.79R
LANGLEY AFB    CLEAR     35  28  76 W9        29.78R
FORT EUSTIS    CLEAR     35  28  75 VRB2      29.78R
WILLIAMSBURG*    N/A    N/A N/A N/A MISG      29.78R
HR EXEC AP*    FAIR      34  27  75 W3        29.82R
FRANKLIN*      CLEAR     33  28  79 W3        29.82R
WAKEFIELD      CLEAR     35  26  69 VRB6      29.80R
$$

VAZ020-022-025-037-045-250900-
WEST CENTRAL AND SOUTHWEST VIRGINIA

CITY           SKY/WX    TMP DP  RH WIND       PRES   REMARKS
STAUNTON*      CLOUDY    37  24  58 CALM      29.76S
WAYNESBORO*    PTSUNNY   33  24  71 CALM      29.73S
HOT SPRINGS VA CLOUDY    26  26 100 W13G21    29.63R WCI  15
LYNCHBURG      CLEAR     36  26  67 SW5       29.81R
DANVILLE       CLEAR     32  25  75 SW7       29.86R
SOUTH BOSTON*  FAIR      32  26  79 CALM      29.85R
MARTINSVILLE   CLEAR     37  27  68 NW5       29.87R
ROANOKE        PTCLDY    37  24  59 NW12      29.82R
BLACKSBURG     PTCLDY    32  26  78 NW12G24   29.81R WCI  23
DUBLIN*        CLOUDY    36  30  80 W12G18    29.81R
MARION*        CLEAR     32  27  83 SW10      29.82R WCI  23
HILLSVILLE*    MOCLDY    32  28  84 W7        29.80R
RICHLANDS*     FAIR      31  25  80 SW7       29.81F
WISE*          CLEAR     32  27  80 SW5       29.83S
ABINGDON*      CLEAR     31  28  86 W5        29.85F
$$

MDZ021>025-VAZ099-100-250900-
SOUTHERN MARYLAND AND THE DELMARVA PENINSULA

CITY           SKY/WX    TMP DP  RH WIND       PRES   REMARKS
PATUXENT RIVER MOCLDY    35  27  72 W10       29.75R
BAY BRIDGE APT   N/A     36  30  80 W9        29.73R
LEONARDTOWN    MOCLDY    34  28  80 W5        29.77R
DOVER          CLOUDY    36  30  79 W12       29.70R
GEORGETOWN     CLOUDY    36  28  73 W7        29.72R
EASTON         CLOUDY    39  31  74 NW7       29.77R
CAMBRIDGE      MOCLDY    37  30  75 W6        29.73R
SALISBURY      CLOUDY    39  28  64 W10       29.73R
OCEAN CITY     CLOUDY    36  28  73 W9        29.73R
WALLOPS ISLAND CLOUDY    36  32  85 W7        29.75R
ACCOMACK*      CLEAR     36  30  80 W8        29.76R
$$

NCZ012>017-030>032-250900-
NORTH CENTRAL AND EASTERN NORTH CAROLINA

CITY           SKY/WX    TMP DP  RH WIND       PRES   REMARKS
ROANOKE RAPIDS FAIR      32  28  86 SW5       29.84R
RALEIGH        CLEAR     34  25  69 CALM      29.87R
ELIZABETH CITY CLEAR     36  28  73 W10       29.81R
AHOSKIE*       CLEAR     34  27  75 CALM      29.83R
EDENTON*       CLEAR     39  31  73 W7        29.82S
CURRITUCK*     CLEAR     36  28  73 W7        29.81R
KILL DEVIL HLS CLEAR     41  31  68 W14G21    29.79S
MANTEO         CLEAR     41  30  65 W10G18    29.81S
CAPE HATTERAS  CLEAR     43  31  62 NW15G31   29.83R
TARBORO*       FAIR      36  28  74 W6        29.87R
GOLDSBORO      CLEAR     36  35  97 W6        29.86R
WASHINGTON     CLEAR     37  29  73 CALM      29.86R
GREENVILLE     CLEAR     37  30  75 W3        29.89R
NEW BERN       CLEAR     40  31  70 W6        29.88R
WILMINGTON     CLEAR     39  37  92 W6        29.90R
$$

VAZ048-250900-
ELSEWHERE

CITY           SKY/WX    TMP DP  RH WIND       PRES   REMARKS
HARRISBURG PA  CLOUDY    35  26  69 W3        29.66R
BALTIMORE      PTCLDY    35  26  69 SW7       29.71R
ANNAPOLIS      PTCLDY    37  26  64 W7        29.72R
ANDREWS AFB    MOCLDY    37  27  69 W10       29.73R
PHILADELPHIA   MOCLDY    34  26  72 W10       29.67R
HENDERSON NC   CLEAR     34  25  70 W6        29.85R
GREENSBORO     CLEAR     32  24  72 W7        29.85R
ROCKY MOUNT    CLEAR     33  27  78 SW5       29.86R
$$

VAZ100-250900-
MARINE

STATION/POSITION TIME  TEMP    WIND        PRES    WAVE   SWELL
                       AIR SEA DIR/SP/G            HT/PER HT/PER
                 (UTC) (F)     (DEG/KT/KT) (MB)    (FT/S) (FT/S)
BRANDYWINE LGT   0800   37 37  290/ 18/ 22 1005.4S
CAPE MAY NJ      0800   36 38  290/ 11/ 16 1004.8S
LEWES DE         0800   36 38  280/ 12/ 14 1005.6S
15NM E FENWICK I 0800   39 42              1005.5R   5/11
OCEAN-CITY-INLET 0800   37 39  290/  8/ 10 1005.9S
WACHAPREAGUE VA  0800   36 41  270/  4/  6 1007.6R
THOMAS POINT MD  0800   39 37  270/ 12/ 14 1007.9R
GOOSES REEF MD   0800   38     VRB 12/ 16  1006.2R
COVE POINT MD    0800   36     290/ 10/ 12 1006.9R
SOLOMONS ISLAND  0800      38                N/A
BISHOPS HEAD MD  0800   38 36  270/ 11/ 13 1006.7R
PINEY POINT MD   0800          290/ 10/ 12   N/A
POTOMAC MD       0800   37     290/ 10/ 14 1006.7R
CAMBRIDGE MD     0800   38 36  250/  4/  6 1006.6S
LEWISETTA VA     0800   36 38  280/  9/ 11 1007.5R
RAPPAHANNOCK LGT 0800          260/ 14/ 16 1008.3R
STINGRAY PT      0800   37     280/ 12/ 14 1008.5R
YORK RVR RNG VA  0800   38     280/ 14/ 15 1007.3R
JAMESTOWN VA     0800   35     300/  8/ 10   N/A
DOMINION TERM VA 0800   37     300/ 10/ 12 1008.6S
KIPTOPEKE VA     0800      45  290/ 13/ 16   N/A
CHES BAY BRIDGE  0800   39 42  250/ 15/ 18 1008.0R
CAPE HENRY VA    0800   38     260/ 12/ 16 1007.2R
CHESAPEAKE LGHT  0700   41     280/ 23/ 26 1008.2R
WILLOUBY STN VA  0800   38     280/ 17/ 19 1008.5F
S CRANEY ISL VA  0800          270/  7/ 12 1008.5F
CAPE HENRY BUOY  0800      45                N/A     4/ 4   2/11
1ST LANDING BUOY 0800   40     270/ 16/ 19 1008.0R
CAPE CHARLES BUO 0800      43                N/A     4/12   3/12
OFFSHORE WE BUOY 0800      47                N/A     5/ 5   3/11
64NM E OF VA BCH 0800   45 53  300/ 19/ 25 1007.3R   8/11   5/11
DUCK PIER NC     0800   41 43  280/ 16/ 23 1008.2S
44100 DUCK FRF   0800      45                N/A     4/11   2/11
44056 DUCK FRF   0800      43                N/A     3/11   2/11
OREGON INLET NC  0800   41 47  290/ 12/ 19 1009.3S
HATTERAS NC      0800   46 55  300/ 20/ 24 1010.4R
DIAMOND SHLS NC  0800   50 71  300/ 23/ 29 1009.2R   8/11   5/11


USA.gov is the U.S. government's official web portal to all federal, state and local government web resources and services.